Regional Weather Roundup
Issued by NWS

Home | Current Version | Previous Version | Graphics & Text | Print | Product List | Glossary On
Versions: 1 2 3 4 5 6 7 8 9 10 11 12 13 14 15 16 17 18 19 20 21 22 23 24 25 26 27 28 29 30 31 32 33 34 35 36 37 38 39 40 41 42 43 44 45 46 47 48 49 50
000
ASUS43 KIND 271859
RWRIN

WEATHER ROUNDUP FOR INDIANA
NATIONAL WEATHER SERVICE INDIANAPOLIS IN
200 PM EST SAT DEC 27 2014

NOTE: "FAIR" INDICATES FEW OR NO CLOUDS BELOW 12,000 FEET WITH NO
SIGNIFICANT WEATHER AND/OR OBSTRUCTIONS TO VISIBILITY.

* - STATION DOES NOT REPORT WEATHER SUCH AS PRECIPITATION OR FOG.

+ - STATION NOT QUALITY CONTROLLED BY THE NATIONAL WEATHER SERVICE.
    USE DATA WITH CAUTION...ESPECIALLY DEWPOINT AND RELATIVE
    HUMIDITY OBSERVATIONS.

INZ001>003-010>013-019-020-272000-
NORTHWEST INDIANA

CITY           SKY/WX    TMP DP  RH WIND       PRES   REMARKS
GARY /AIRPORT/ CLOUDY    45  39  81 W26G39    29.99R HAZE
KNOX *+        CLOUDY    47  43  87 SW18      29.98F
VALPARAISO     NOT AVBL

$$

LMZ046-743>745-272000-
SOUTHERN LAKE MICHIGAN

STATION/POSITION TIME  TEMP WIND        PRES
                       AIR  DIR/SP/G
                 (UTC) (F)  (DEG/KT/KT) (MB)
MICHIGAN CITY    1800   47  180/ 22/ 30   N/A

$$

INZ004-005-014>016-021>024-272000-
NORTH CENTRAL INDIANA

CITY           SKY/WX    TMP DP  RH WIND       PRES   REMARKS
GOSHEN         CLOUDY    47  45  93 SW17G23   29.99F FOG
SOUTH BEND     CLOUDY    48  46  93 SW17G23   29.97F FOG

$$

INZ006>009-017-018-025>027-272000-
NORTHEAST INDIANA

CITY           SKY/WX    TMP DP  RH WIND       PRES   REMARKS
ANGOLA *+      CLOUDY    45  45 100 SW10      29.98S
FORT WAYNE     CLOUDY    46  43  89 SW17      30.02F

$$

INZ028-029-035-036-043>045-051>053-272000-
WEST CENTRAL INDIANA

CITY           SKY/WX    TMP DP  RH WIND       PRES   REMARKS
GREENCASTLE +  FOG       45  43  93 SW6       30.08F VSB 1
LAFAYETTE      CLOUDY    46  45  96 SW8       30.03F
TERRE HAUTE    CLOUDY    48  46  93 SW8       30.09F FOG

$$

INZ030>032-037>040-046>048-054>057-064-065-272000-
CENTRAL INDIANA

CITY           SKY/WX    TMP DP  RH WIND       PRES   REMARKS
ANDERSON       CLOUDY    46  46 100 S12G17    30.06F FOG
COLUMBUS       LGT RAIN  46  45  93 S12       30.11F FOG
INDIANAPOLIS   CLOUDY    46  44  93 SW9       30.06F
-EAGLE CREEK   CLOUDY    46  45  96 SW8       30.07R
KOKOMO *+      CLOUDY    46  43  87 SW17G25   30.04F
MT COMFORT *+  CLOUDY    46 N/A N/A S9G16     30.06F
SHELBYVILLE    CLOUDY    47  45  93 S12       30.07F FOG

$$

INZ033-034-041-042-049-050-058-059-272000-
EAST CENTRAL INDIANA

CITY           SKY/WX    TMP DP  RH WIND       PRES   REMARKS
MUNCIE         CLOUDY    47  44  90 SW9G23    30.04F

$$

INZ060-061-067>069-081>083-085>088-272000-
SOUTHWEST INDIANA

CITY           SKY/WX    TMP DP  RH WIND       PRES   REMARKS
EVANSVILLE     LGT RAIN  50  47  89 S7        30.13F FOG
HUNTINGBURG *+ CLOUDY    46  45  93 SW9       30.13S

$$

INZ062-063-066-070>080-084-089>092-272000-
SOUTH CENTRAL AND SOUTHEAST INDIANA

CITY           SKY/WX    TMP DP  RH WIND       PRES   REMARKS
BLOOMINGTON    CLOUDY    47  46  97 SW10      30.09S

$$



USA.gov is the U.S. government's official web portal to all federal, state and local government web resources and services.